Regional Weather Roundup
Issued by NWS Bismarck, ND

Home | Current Version | Previous Version | Text Only | Print | Product List | Glossary On
Versions: 1 2 3 4 5 6 7 8 9 10 11 12 13 14 15 16 17 18 19 20 21 22 23 24 25 26 27 28 29 30 31 32 33 34 35 36 37 38 39 40 41 42 43 44 45 46 47 48 49 50
625
ASUS43 KBIS 232310
RWRBIS

NWR BROADCAST TEXT
NATIONAL WEATHER SERVICE BISMARCK ND
600 PM CDT MON APR 23 2018

NOTE: "FAIR" INDICATES FEW OR NO CLOUDS BELOW 12,000 FEET WITH NO
SIGNIFICANT WEATHER AND/OR OBSTRUCTIONS TO VISIBILITY.


CITY           SKY/WX    TMP DP  RH WIND       PRES   REMARKS
WILLISTON      CLOUDY    52  25  35 N21       30.30S
MINOT          CLOUDY    53  33  46 NW15      30.24R
MINOT AFB      NOT AVBL
BISMARCK       CLOUDY    60  31  33 NE18      30.16S
DICKINSON      CLOUDY    47  33  58 N18G26    30.19S
GARRISON         N/A     50  35  56 N14G22    30.23R
HETTINGER ARPT CLOUDY    53  29  39 NE35G43   30.12R
JAMESTOWN      CLOUDY    62  36  37 N14       30.15R
CARRINGTON     FAIR      61  32  33 NE12      30.20S
HAZEN          CLOUDY    54  36  50 N16       30.24S
LINTON           N/A    N/A N/A N/A NE18G24   30.12S
MANDAN         CLOUDY    57  30  35 N18G26    30.16S
OAKES            N/A     63  46  55 NE18      30.12S
RUGBY          FAIR      54  34  47 NW14      30.21R
STANLEY          N/A     48  32  53 N15       30.28S HAZE
TIOGA          FAIR      50  27  40 N22       30.28S
WATFORD CITY   LGT RAIN  43  39  87 N6G17     30.30R
$$

CITY           SKY/WX    TMP DP  RH WIND       PRES   REMARKS
GRAND FORKS    PTSUNNY   60  36  40 NE12      30.16S
GRAND FORKS AF NOT AVBL
DEVILS LAKE    FAIR      57  34  41 N14       30.19S
FARGO          FAIR      65  40  39 N14       30.14S
CANDO          FAIR      55  34  44 N12       30.22S
CAVALIER         N/A     61  34  36 N14       30.16S
GRAFTON        FAIR      63  34  34 N7G13     30.17F
GWINNER          N/A     63  48  59 N17       30.11F
LANGDON        FAIR      57  37  47 NW15      30.19R
ROLLA          MOCLDY    52  36  54 NW16      30.21S
WALHALLA       FAIR      59  36  41 NW13      30.17S
$$

CITY           SKY/WX    TMP DP  RH WIND       PRES   REMARKS
ABERDEEN       PTSUNNY   69  36  29 E6        30.09S
MOBRIDGE       PTSUNNY   70  40  33 S8        30.03F
BUFFALO          N/A     52  32  46 NE39G52   29.98R
RAPID CITY     CLOUDY    65  39  38 E12       29.97F
GLASGOW        CLOUDY    54  22  28 N14       30.35S
SIDNEY         LGT RAIN  44  38  79 CALM      30.34R
WOLF POINT     CLOUDY    54  22  28 N16       30.34R
GLENDIVE       LGT RAIN  38  36  92 N17       30.32S
MILES CITY     LGT SNOW  34  34 100 NW13      30.35R FOG
BAKER          CLOUDY    41  34  76 N28G38    30.21R
$$

CITY           SKY/WX    TMP DP  RH WIND       PRES   REMARKS
BILLINGS       LGT RAIN  35  34  96 NW9       30.42R
GREAT FALLS    PTSUNNY   49  24  37 E8        30.41S
REGINA         PTSUNNY   54  21  28 N16G28    30.32R
ESTEVAN        CLOUDY    52  19  28 N21G26    30.29S
$$





USA.gov is the U.S. government's official web portal to all federal, state and local government web resources and services.